Other Public Products
Issued by NWS Grand Forks, ND

Home | Current Version | Previous Version | Text Only | Print | Product List | Glossary Off
Versions: 1 2 3 4 5 6 7 8 9 10 11 12 13 14 15 16 17 18 19 20 21 22 23 24 25 26 27 28 29 30 31 32 33 34 35 36 37 38 39 40 41 42 43 44 45 46 47 48 49 50

000
FPUS83 KFGF 061710
OPUFGF
PRAIRIE TO PINES WEATHER ROUNDUP
NATIONAL WEATHER SERVICE EASTERN NORTH DAKOTA/GRAND FORKS ND
1200 PM CDT WED MAY 06 2015

 **SATELLITE DATA USED TO AUGMENT SKY COVER AT AUTOMATED STATIONS**
 *****  WEATHER ACROSS EASTERN NORTH DAKOTA  *****

CITY           SKY/WX    TMP DP  RH WIND       PRES   REMARKS
GRAND FORKS    LGT RAIN  59  58  96 S13G20    29.88F FOG
GRAND FORKS AF LGT RAIN  59  57  94 S15       29.87F
GRAND CITY NWS   N/A     57 N/A N/A S13         N/A
BUXTON         NOT AVBL
DEVILS LAKE    CLOUDY    57  54  88 SE12      29.83S
FARGO          CLOUDY    63  58  83 SE21G28   29.87F
WAHPETON ARPT  CLOUDY    61  55  82 SE18      29.88F
$$

 *****  WEATHER ACROSS CENTRAL AND WESTERN NORTH DAKOTA  *****

CITY           SKY/WX    TMP DP  RH WIND       PRES   REMARKS
JAMESTOWN      CLOUDY    59  58  96 SE16      29.80F
BISMARCK       CLOUDY    60  59  96 SE15      29.73F FOG
MINOT          LGT RAIN  61  58  90 SE9       29.75S FOG
MINOT AFB      LGT RAIN  63  63 100 S14       29.74S
GARRISON         N/A     60  32  34 SE9       29.73F
WILLISTON      RAIN      59  56  89 S7        29.71S FOG
DICKINSON      LGT RAIN  59  54  83 S9        29.70F
HETTINGER      LGT RAIN  58  55  90 SE8       29.71F
$$

 *****  OTHER OBSERVATIONS NORTHEAST NORTH DAKOTA  *****

CITY           SKY/WX    TMP DP  RH WIND       PRES   REMARKS
WALHALLA       CLOUDY    63  63 100 S16G22    29.86S
LANGDON        CLOUDY    61  59  94 S14G22    29.86S FOG
CAVALIER       CLOUDY    63  55  77 S20       29.87R HAZE
GRAFTON        DRIZZLE   59  59 100 S16       29.88F
CANDO          PTSUNNY   59  57  94 S17       29.83S FOG
FORT TOTTEN      N/A     58  58  99 S12       29.95S
ROLLA          NOT AVBL
RUGBY          NOT AVBL
 ***** THE ABOVE OBSERVATIONS ARE NON NWS ARE NOT QUALITY
        CONTROLLED AND MAY MIS-REPORT RAIN FOR SNOW...
$$

 *****  OTHER OBSERVATIONS SOUTHEAST NORTH DAKOTA *****

CITY           SKY/WX    TMP DP  RH WIND       PRES   REMARKS
COOPERSTOWN    NOT AVBL
VALLEY CITY    CLOUDY    57  57 100 SE15      29.84F FOG
OAKES            N/A     63  63 100 SE22      29.81F
GWINNER        CLOUDY    61  61 100 SE23      29.85F
SHEYENNE NWR     N/A     60  59  96 SE14      29.95S
BUFFALO        NOT AVBL
WYNDMERE       NOT AVBL
 ***** THE ABOVE OBSERVATIONS ARE NON NWS ARE NOT QUALITY
       CONTROLLED AND MAY MIS-REPORT RAIN FOR SNOW...
$$

  *****  WEATHER ACROSS NORTHERN MINNESOTA  *****

CITY           SKY/WX    TMP DP  RH WIND       PRES   REMARKS
FLAG ISLAND    CLOUDY    54  46  76 SE6       29.96F
WARROAD        CLOUDY    64  55  72 SE9       29.94S
ROSEAU         CLOUDY    70  55  60 S12       29.92F
HALLOCK        CLOUDY    70  55  60 S22       29.88S
THF RVR FALLS  CLOUDY    66  54  63 S14       29.92R
HALSTAD        NOT AVBL
FOSSTON        CLOUDY    66  54  63 S14       29.93F
BAUDETTE       CLOUDY    56  52  86 SE13      29.98F
WASKISH        CLOUDY    66  55  68 SE7       29.97F
CROOKSTON      LGT RAIN  61  59  94 S14       29.90F
$$
  *****  WEATHER ACROSS CENTRAL AND WEST MINNESOTA  *****

CITY           SKY/WX    TMP DP  RH WIND       PRES   REMARKS
BEMIDJI        CLOUDY    63  54  73 SE14      29.97S
PARK RAPIDS    CLOUDY    61  54  77 SE16      29.97F
WADENA         CLOUDY    57  55  94 SE13      29.95F FOG
DETROIT LAKES  CLOUDY    59  55  88 SE15      29.94F
MOORHEAD       CLOUDY    63  57  82 SE16      29.88F
FERGUS FALLS   CLOUDY    61  59  94 SE13      29.90F FOG
ELBOW LAKE     CLOUDY    60  58  92 E13G18    29.90F
MORRIS MN      CLOUDY    63  61  94 SE20      29.89F FOG
STAPLES        CLOUDY    55  54  94 E8        29.97F FOG
WHEATON        CLOUDY    61  57  88 SE18G26   29.89F FOG
$$
  *****  WEATHER ELSEWHERE ACROSS MINNESOTA  *****

CITY           SKY/WX    TMP DP  RH WIND       PRES   REMARKS
DULUTH         CLOUDY    53  46  77 E13       30.09S
INTRNTL FALLS  CLOUDY    58  52  80 SE12      30.01F
ELY            CLOUDY    64  43  45 SE13      30.07F
CLOQUET        CLOUDY    54  45  71 E10       30.08S
BRAINERD       CLOUDY    61  54  77 SE7       30.00F
HIBBING        CLOUDY    55  49  80 SE10      30.07S
ALEXANDRIA     CLOUDY    59  56  89 E18       29.94F FOG
SAINT CLOUD    CLOUDY    60  56  86 SE8       29.99F FOG
MINNEAPOLIS    CLOUDY    64  58  80 E16       30.01F
$$

  *****  WEATHER ACROSS SOUTH DAKOTA  *****

CITY           SKY/WX    TMP DP  RH WIND       PRES   REMARKS
SIOUX FALLS    RAIN      65  59  81 SE21G30   29.81F
BROOKINGS      CLOUDY    66  61  82 SE18G28   29.82F
WATERTOWN      LGT RAIN  64  60  87 E10G21    29.82F FOG
HURON          RAIN      63  61  93 SE10      29.75F FOG
SISSETON         N/A     61  60  97 S21       29.85F
ABERDEEN       LGT RAIN  64  61  90 SE20G28   29.79F FOG
MITCHELL       LGT RAIN  63  62  97 SE22      29.74F FOG
PIERRE         CLOUDY    66  57  72 SE18      29.69F
MOBRIDGE       CLOUDY    65  60  84 SE16      29.70F
RAPID CITY     CLOUDY    57  55  93 CALM      29.68F
$$

  *****  SOME WEATHER IN NEARBY STATES *****

CITY           SKY/WX    TMP DP  RH WIND       PRES   REMARKS
GLASGOW MT     LGT RAIN  51  42  71 NW23      29.79R
GREAT FALLS MT MOSUNNY   49  33  54 N10       29.94S
CHEYENNE WY    LGT RAIN  52  47  83 N9        29.72S
SCOTTSBLUFF NE CLOUDY    60  53  77 E8        29.66F
OMAHA NE       CLOUDY    70  60  70 S21G32    29.85S
DES MOINES IA  CLOUDY    75  58  55 S24G31    29.95R
DAVENPORT IA   SUNNY     75  60  59 S15       30.09F
CHICAGO IL     PTSUNNY   69  58  67 VRB6      30.16F HAZE
EAU CLAIRE WI  LGT RAIN  59  55  87 E8        30.08F
LA CROSSE WI   PTSUNNY   67  58  72 VRB6      30.08F
$$

  *****  SOME NATIONAL WEATHER *****

CITY           SKY/WX    TMP DP  RH WIND       PRES   REMARKS
LA GUARDIA NY  LGT RAIN  62  43  49 NE10      30.28F
RALEIGH NC     PTSUNNY   79  57  46 E6        30.22F
ATLANTA GA     MOSUNNY   76  52  43 E13G18    30.21F
NEW ORLEANS LA PTSUNNY   82  62  50 SE12      30.09S
OKLAHOMA CITY  CLOUDY    73  65  75 S20G29    29.90F
ALBUQUERQUE NM PTSUNNY   63  44  50 SW10      29.95F
SALT LAKE CITY PTSUNNY   62  46  55 SE10      29.78F
LOS ANGELES CA CLOUDY    61  51  70 SW6       29.91S
BOISE ID       PTSUNNY   54  29  38 NW15      29.87F
SEATTLE WA     PTSUNNY   49  42  77 NE7       30.15R
$$

*** WEATHER ACROSS MANITOBA...SASKATCHEWAN AND ONTARIO ***
                ***ONTARIO***

CITY           SKY/WX    TMP DP  RH WIND       PRES   REMARKS
GERALDTON      MOSUNNY   72  32  23 W6        30.16F
THUNDER BAY    PTSUNNY   63  32  31 E14       30.16F
SIOUX LOOKOUT  CLOUDY    70  37  30 S12G21    30.04F
TORONTO        PTSUNNY   70  37  30 SE7       30.27F
BIG TROUT LK   PTSUNNY   48  25  40 E12G18    30.16F
PICKLE LAKE    MOSUNNY   70  36  28 S9        30.06F
DRYDEN         PTSUNNY   70  46  43 SE15G22   30.02F
KENORA         CLOUDY    64  48  55 SE13G21   29.98F
$$
                *** MANITOBA***

CITY           SKY/WX    TMP DP  RH WIND       PRES   REMARKS
BRANDON        LGT RAIN  61  59  94 SE12      29.79F
DAUPHIN        MOSUNNY   72  55  56 S15G21    29.73F
ISLAND LAKE    PTSUNNY   50  34  53 E9G23     30.01F
PILOT MOUND      N/A     63  55  77 S21G26      N/A
THE PAS        CLOUDY    45  32  61 E9G20     29.84S
THOMPSON       CLOUDY    32  25  74 NE15G25   30.11F WCI  22
WINNIPEG       CLOUDY    68  54  60 S17       29.87F
LYNN LAKE      LGT SNOW  27  23  86 NE15G25   30.11F WCI  15
CHURCHILL      PTSUNNY   23 N/A N/A NW17        N/A  WCI   9
GILLAM           N/A     23  18  80 NE7       30.28R VSB 1/2 WCI  15
$$
                ***SASKATCHEWAN***

CITY           SKY/WX    TMP DP  RH WIND       PRES   REMARKS
ESTEVAN        CLOUDY    64  54  68 S22       29.70S
KINDERSLEY     CLOUDY    43  36  75 NW18G28   29.83R
LLOYDMINSTER   DRIZZLE   37  36  93 N10       29.82R FOG
PRINCE ALBERT  LGT RAIN  41  39  93 NE10      29.74S FOG
REGINA         CLOUDY    59  46  63 NW22      29.70R



USA.gov is the U.S. government's official web portal to all federal, state and local government web resources and services.